Volver al catálogo

ELECTRON KICK STAGE R/B

ActivoVLEO
NORAD 65973·ROCKET BODY·🇺🇸 United States

Lanzado Oct 14, 2025 desde Rocket Lab Launch Complex 1

Loading…

Próximos Pases (próximas 24 horas)

TLE

ActualizadoSource: Space-Track

Época: Sep 14, 2026, 01:25 UTC

1 65973U 25229C   26257.05914596  .00003812  00000-0  26316-3 0  9996
2 65973  41.9813 152.6901 0040861 273.7427  85.8729 15.06349561 50377

Sigue ELECTRON KICK STAGE R/B en tiempo real con AllMySat

Download on the App Store